When you browse on this site, cookies collect data to enhance your experience and personalize the content and advertising you see.
Visit our Privacy Policy to learn more. By continuing to use the site, you agree to this use of cookies and data.
  • In Österreich
  • Länderverzeichnis
  • Für 7 Tage
  • Wassertemperatur
  • Wetterkarte
  • News
  • Widgets
  • user-avatar
    Anmelden

    Stündliche Wetter Absam

    Heute, 19 September, Donnerstag

    Zeit Temperatur Niederschläge Wind Luftdruck Luftfeuchtigkeit
    00:00 +11°C° 0 mm 1 m/S 694 mmHg 91%
    01:00 +10°C° 0 mm 1 m/S 694 mmHg 92%
    02:00 +9°C° 0 mm 1 m/S 694 mmHg 92%
    03:00 +9°C° 0 mm 1 m/S 693 mmHg 93%
    04:00 +8°C° 0 mm 1 m/S 693 mmHg 94%
    05:00 +8°C° 0 mm 1 m/S 693 mmHg 91%
    06:00 +9°C° 0 mm 1 m/S 694 mmHg 89%
    07:00 +9°C° 0 mm 1 m/S 694 mmHg 87%
    08:00 +11°C° 0 mm 1 m/S 694 mmHg 78%
    09:00 +13°C° 0 mm 1 m/S 694 mmHg 68%
    10:00 +14°C° 0 mm 2 m/S 695 mmHg 58%
    11:00 +15°C° 0 mm 2 m/S 695 mmHg 54%
    12:00 +17°C° 0 mm 2 m/S 695 mmHg 49%
    13:00 +18°C° 0 mm 2 m/S 695 mmHg 44%
    14:00 +17°C° 0 mm 2 m/S 695 mmHg 47%
    15:00 +17°C° 0 mm 2 m/S 695 mmHg 50%
    16:00 +17°C° 0 mm 2 m/S 695 mmHg 53%
    17:00 +14°C° 0 mm 2 m/S 694 mmHg 66%
    18:00 +11°C° 0 mm 1 m/S 694 mmHg 78%
    19:00 +9°C° 0 mm 1 m/S 694 mmHg 91%
    20:00 +8°C° 0 mm 1 m/S 694 mmHg 92%
    21:00 +8°C° 0 mm 1 m/S 695 mmHg 92%
    22:00 +6°C° 0 mm 0 m/S 695 mmHg 93%
    23:00 +6°C° 0 mm 0 m/S 695 mmHg 92%

    Morgen, 20 September, Freitag

    Zeit Temperatur Niederschläge Wind Luftdruck Luftfeuchtigkeit
    00:00 +6°C° 0 mm 0 m/S 695 mmHg 91%
    01:00 +6°C° 0 mm 0 m/S 695 mmHg 91%
    02:00 +6°C° 0 mm 0 m/S 695 mmHg 89%
    03:00 +6°C° 0 mm 0 m/S 695 mmHg 88%
    04:00 +5°C° 0 mm 0 m/S 694 mmHg 87%
    05:00 +6°C° 0 mm 0 m/S 695 mmHg 83%
    06:00 +7°C° 0 mm 0 m/S 695 mmHg 80%
    07:00 +8°C° 0 mm 0 m/S 695 mmHg 76%
    08:00 +11°C° 0 mm 0 m/S 695 mmHg 65%
    09:00 +15°C° 0 mm 1 m/S 696 mmHg 53%
    10:00 +18°C° 0 mm 1 m/S 696 mmHg 42%
    11:00 +19°C° 0 mm 1 m/S 696 mmHg 40%
    12:00 +20°C° 0 mm 1 m/S 696 mmHg 38%
    13:00 +20°C° 0 mm 2 m/S 695 mmHg 36%
    14:00 +20°C° 0 mm 2 m/S 695 mmHg 40%
    15:00 +19°C° 0 mm 2 m/S 695 mmHg 44%
    16:00 +20°C° 0 mm 1 m/S 695 mmHg 47%
    17:00 +16°C° 0 mm 1 m/S 694 mmHg 60%
    18:00 +13°C° 0 mm 1 m/S 694 mmHg 72%
    19:00 +11°C° 0 mm 1 m/S 693 mmHg 84%
    20:00 +11°C° 0 mm 1 m/S 694 mmHg 84%
    21:00 +11°C° 0 mm 1 m/S 694 mmHg 84%
    22:00 +11°C° 0 mm 1 m/S 694 mmHg 84%
    23:00 +11°C° 0 mm 1 m/S 694 mmHg 84%

    übermorgen, 21 September, Samstag

    Zeit Temperatur Niederschläge Wind Luftdruck Luftfeuchtigkeit
    00:00 +10°C° 0 mm 2 m/S 694 mmHg 85%
    01:00 +10°C° 0 mm 2 m/S 694 mmHg 85%
    02:00 +10°C° 0 mm 2 m/S 694 mmHg 86%
    03:00 +10°C° 0 mm 2 m/S 693 mmHg 87%
    04:00 +10°C° 0 mm 2 m/S 693 mmHg 88%
    05:00 +10°C° 0 mm 2 m/S 693 mmHg 86%
    06:00 +12°C° 0 mm 2 m/S 693 mmHg 84%
    07:00 +12°C° 0 mm 2 m/S 693 mmHg 82%
    08:00 +15°C° 0 mm 2 m/S 693 mmHg 72%
    09:00 +19°C° 0 mm 1 m/S 694 mmHg 62%
    10:00 +22°C° 0 mm 1 m/S 694 mmHg 52%
    11:00 +23°C° 0 mm 1 m/S 694 mmHg 49%
    12:00 +25°C° 0 mm 1 m/S 694 mmHg 46%
    13:00 +26°C° 0 mm 1 m/S 694 mmHg 43%
    14:00 +25°C° 0 mm 1 m/S 693 mmHg 46%
    15:00 +24°C° 0 mm 1 m/S 693 mmHg 49%
    16:00 +24°C° 0 mm 2 m/S 692 mmHg 51%
    17:00 +20°C° 0 mm 2 m/S 692 mmHg 61%
    18:00 +17°C° 0 mm 2 m/S 691 mmHg 71%
    19:00 +15°C° 0 mm 2 m/S 691 mmHg 80%
    20:00 +14°C° 0 mm 2 m/S 691 mmHg 81%
    21:00 +13°C° 0 mm 3 m/S 691 mmHg 82%
    22:00 +12°C° 0 mm 3 m/S 690 mmHg 83%
    23:00 +12°C° 0 mm 3 m/S 690 mmHg 84%

    22 September, Sonntag

    Zeit Temperatur Niederschläge Wind Luftdruck Luftfeuchtigkeit
    00:00 +12°C° 0 mm 3 m/S 690 mmHg 84%
    01:00 +12°C° 0 mm 3 m/S 690 mmHg 84%
    02:00 +12°C° 0 mm 3 m/S 689 mmHg 84%
    03:00 +12°C° 0 mm 3 m/S 689 mmHg 84%
    04:00 +11°C° 0 mm 3 m/S 689 mmHg 84%
    05:00 +13°C° 0 mm 2 m/S 689 mmHg 83%
    06:00 +13°C° 0 mm 2 m/S 689 mmHg 82%
    07:00 +14°C° 0 mm 2 m/S 689 mmHg 80%
    08:00 +16°C° 0 mm 2 m/S 689 mmHg 73%
    09:00 +18°C° 0 mm 2 m/S 689 mmHg 66%
    10:00 +22°C° 0 mm 1 m/S 690 mmHg 59%
    11:00 +22°C° 0 mm 1 m/S 690 mmHg 58%
    12:00 +23°C° 0 mm 1 m/S 689 mmHg 57%
    13:00 +23°C° 0 mm 1 m/S 689 mmHg 56%
    14:00 +23°C° 0.1 mm 1 m/S 689 mmHg 59%
    15:00 +23°C° 0.1 mm 1 m/S 688 mmHg 63%
    16:00 +22°C° 0.1 mm 1 m/S 688 mmHg 66%
    17:00 +19°C° 0.1 mm 2 m/S 688 mmHg 73%
    18:00 +18°C° 0.1 mm 2 m/S 687 mmHg 80%
    19:00 +16°C° 0.1 mm 2 m/S 687 mmHg 87%
    20:00 +15°C° 0 mm 2 m/S 687 mmHg 88%
    21:00 +15°C° 0 mm 2 m/S 687 mmHg 89%
    22:00 +14°C° 0 mm 3 m/S 687 mmHg 90%
    23:00 +15°C° 0 mm 2 m/S 687 mmHg 90%

    23 September, Montag

    Zeit Temperatur Niederschläge Wind Luftdruck Luftfeuchtigkeit
    00:00 +14°C° 0 mm 2 m/S 687 mmHg 90%
    01:00 +14°C° 0 mm 2 m/S 687 mmHg 90%
    02:00 +14°C° 0 mm 1 m/S 687 mmHg 91%
    03:00 +14°C° 0 mm 1 m/S 687 mmHg 93%
    04:00 +14°C° 0 mm 1 m/S 687 mmHg 94%
    05:00 +14°C° 0.6 mm 1 m/S 688 mmHg 95%
    06:00 +13°C° 0.6 mm 2 m/S 688 mmHg 96%
    07:00 +13°C° 0.6 mm 2 m/S 688 mmHg 98%
    08:00 +12°C° 3.2 mm 2 m/S 688 mmHg 97%
    09:00 +12°C° 3.2 mm 2 m/S 688 mmHg 97%
    10:00 +10°C° 3.2 mm 2 m/S 688 mmHg 96%
    11:00 +12°C° 1.2 mm 1 m/S 688 mmHg 95%
    12:00 +12°C° 1.2 mm 1 m/S 688 mmHg 93%
    13:00 +12°C° 1.2 mm 1 m/S 688 mmHg 92%
    14:00 +13°C° 0.1 mm 1 m/S 688 mmHg 88%
    15:00 +14°C° 0.1 mm 1 m/S 688 mmHg 85%
    16:00 +14°C° 0.1 mm 1 m/S 688 mmHg 82%
    17:00 +13°C° 0.1 mm 1 m/S 688 mmHg 86%
    18:00 +12°C° 0.1 mm 1 m/S 688 mmHg 91%
    19:00 +10°C° 0.1 mm 1 m/S 688 mmHg 95%
    20:00 +10°C° 0.1 mm 1 m/S 688 mmHg 95%
    21:00 +9°C° 0.1 mm 1 m/S 689 mmHg 95%
    22:00 +9°C° 0.1 mm 1 m/S 689 mmHg 95%
    23:00 +9°C° 0.1 mm 1 m/S 689 mmHg 95%

    24 September, Dienstag

    Zeit Temperatur Niederschläge Wind Luftdruck Luftfeuchtigkeit
    00:00 +9°C° 0.1 mm 1 m/S 689 mmHg 95%
    01:00 +9°C° 0.1 mm 1 m/S 689 mmHg 95%
    02:00 +9°C° 0 mm 1 m/S 689 mmHg 94%
    03:00 +8°C° 0 mm 1 m/S 689 mmHg 94%
    04:00 +8°C° 0 mm 1 m/S 689 mmHg 93%
    05:00 +8°C° 0 mm 1 m/S 689 mmHg 93%
    06:00 +9°C° 0 mm 1 m/S 690 mmHg 92%
    07:00 +10°C° 0 mm 1 m/S 690 mmHg 92%
    08:00 +11°C° 0.1 mm 1 m/S 690 mmHg 90%
    09:00 +12°C° 0.1 mm 1 m/S 690 mmHg 88%
    10:00 +13°C° 0.1 mm 1 m/S 690 mmHg 85%
    11:00 +15°C° 0 mm 1 m/S 690 mmHg 75%
    12:00 +18°C° 0 mm 1 m/S 690 mmHg 65%
    13:00 +20°C° 0 mm 1 m/S 690 mmHg 54%
    14:00 +19°C° 0 mm 1 m/S 690 mmHg 55%
    15:00 +19°C° 0 mm 1 m/S 690 mmHg 56%
    16:00 +19°C° 0 mm 1 m/S 690 mmHg 57%
    17:00 +16°C° 0 mm 1 m/S 689 mmHg 65%
    18:00 +14°C° 0 mm 0 m/S 689 mmHg 74%
    19:00 +12°C° 0 mm 0 m/S 689 mmHg 82%
    20:00 +13°C° 0 mm 1 m/S 689 mmHg 82%
    21:00 +13°C° 0 mm 1 m/S 689 mmHg 81%
    22:00 +13°C° 0 mm 1 m/S 689 mmHg 80%
    23:00 +13°C° 0.1 mm 1 m/S 689 mmHg 80%
    Mehr zeigen